Hourly Data Report for October 03, 2017

All times are specified in Local Standard Time (LST). Add 1 hour to adjust for Daylight Saving Time where and when it is observed.

PINAWA
MANITOBA

50°10'38.020" N
96°03'53.000" W
268.00 m
503B1ER
71448
WEA

Download Data

Hourly Data (October 2017)
Hourly Data Report for October 3, 2017
Temp Definition
°C
Dew Point Temp Definition
°C
Rel Hum Definition
%
Wind Dir Definition
10's deg

Wind Spd Definition
km/h
Visibility Definition
km
Stn Press Definition
kPa
Hmdx Definition


Wind Chill Definition


Weather Definition


TIME
00:00 5.7 4.5 92 20 2   98.11     LegendNANA
01:00 4.0 2.9 92 12 2   98.10     LegendNANA
02:00 3.3 2.3 93 18 2   98.14     LegendNANA
03:00 3.1 2.1 93   0   98.11     LegendNANA
04:00 2.9 1.9 93   0   98.15     LegendNANA
05:00 1.9 1.0 93   0   98.22     LegendNANA
06:00 1.8 1.0 95 23 1   98.30     LegendNANA
07:00 3.0 2.2 95   0   98.30     LegendNANA
08:00 5.8 5.1 95 0 1   98.34     LegendNANA
09:00 6.6 5.8 95 13 2   98.48     LegendNANA
10:00 7.5 5.8 89 14 3   98.52     LegendNANA
11:00 10.1 6.6 79 17 5   98.52     LegendNANA
12:00 10.6 7.5 81 20 3   98.58     LegendNANA
13:00 11.0 7.0 76 23 5   98.62     LegendNANA
14:00 11.1 6.4 73 13 1   98.59     LegendNANA
15:00 12.0 5.7 65 25 5   98.63     LegendNANA
16:00 11.3 4.6 64 28 7   98.69     LegendNANA
17:00 11.1 4.5 64 0 1   98.73     LegendNANA
18:00 9.4 5.7 78 7 3   98.73     LegendNANA
19:00 7.8 5.0 83 10 4   98.76     LegendNANA
20:00 6.9 4.8 86 10 5   98.79     LegendNANA
21:00 6.4 5.2 92 14 3   98.80     LegendNANA
22:00 4.7 3.5 92 23 2   98.76     LegendNANA
23:00 5.4 4.6 94 18 3   98.74     LegendNANA

Notes on Data Quality.

Legend

  • E = Estimated
  • M = Missing
  • NA = Not Available
  • ‡ = Partner data that is not subject to review by the National Climate Archives
Date modified: